Wind_Speed
99 101 101 100 99 97 95 93 92 94 93 87 82 77 75 74 73 73 73 72 72 72 72 71 70 67 64 61 59 57 57 57 57 57 56 54 52 50
103 103 101 98 94 90 85 80 78 79 81 75 71 68 67 67 68 70 71 72 71 70 70 70 68 67 64 63 60 58 56 57 59 59 59 57 54 53
102 99 94 90 83 78 73 71 69 70 71 68 64 63 63 64 64 66 67 68 68 67 66 66 66 65 64 64 62 59 56 56 57 58 60 59 56 55
93 88 82 77 72 69 68 67 67 68 71 70 65 63 63 64 64 64 65 66 66 64 63 62 62 63 63 63 63 61 57 56 56 56 58 58 56 55
82 77 74 72 70 69 70 70 71 72 74 76 73 69 66 65 65 64 64 64 63 62 61 61 61 62 62 62 62 62 59 57 56 55 56 56 56 55
76 75 75 75 75 76 76 77 78 79 80 82 81 78 75 72 71 68 65 63 62 62 61 61 61 61 62 61 60 60 60 59 58 57 56 56 55 54
77 79 80 82 84 85 86 86 87 88 88 88 87 84 80 77 75 73 69 64 60 60 61 61 61 61 61 61 61 61 61 60 60 60 58 57 56 55
84 85 87 89 91 92 92 93 93 94 93 90 87 84 79 75 72 70 69 65 60 58 61 59 60 59 59 61 61 61 61 61 60 59 58 57 56 55
89 89 88 87 88 89 89 89 88 87 85 83 80 75 71 67 64 62 61 61 58 56 59 56 57 57 57 59 59 60 60 60 59 56 56 55 55 56
81 78 77 76 76 77 78 76 73 70 67 65 64 62 60 56 54 52 51 52 53 53 56 54 54 56 56 57 58 58 58 57 56 53 52 52 52 55
67 66 65 65 63 63 63 60 57 53 50 49 48 49 49 46 43 42 42 45 45 47 50 52 52 53 53 53 55 56 55 53 51 51 49 49 49 52
60 58 58 57 55 53 51 49 45 41 38 35 35 37 38 35 34 34 34 36 37 38 41 45 47 48 48 48 49 50 49 49 47 46 46 46 48 49
56 53 52 50 49 46 45 43 40 36 31 27 24 25 26 26 25 26 28 29 29 29 31 36 38 40 41 40 40 42 43 44 42 41 42 43 44 44
52 49 48 47 45 43 41 39 37 33 27 20 15 14 16 17 19 21 23 25 24 22 22 26 28 31 33 33 34 36 38 39 37 37 39 40 41 41
47 44 44 44 43 41 39 37 33 27 19 12 8 8 10 13 15 18 20 21 21 19 17 18 21 25 27 28 30 33 34 33 33 33 35 36 38 38
44 42 42 42 42 39 36 33 28 20 12 7 5 6 8 11 14 16 18 18 17 16 14 14 17 20 22 24 26 29 30 30 30 30 31 33 34 34
44 42 41 40 37 34 31 27 20 13 8 6 6 6 7 10 12 14 14 14 14 13 13 13 14 16 19 21 23 26 27 28 29 30 31 31 31 31
43 40 39 37 33 28 23 17 12 9 9 10 10 9 8 9 10 10 10 9 9 10 10 11 12 14 16 19 21 23 24 26 28 28 28 29 30 33
40 38 35 32 27 21 14 9 8 10 13 15 14 10 7 5 6 7 6 6 5 4 4 7 10 12 15 17 19 21 22 23 24 26 28 31 33 34
36 33 30 26 19 12 8 7 10 14 17 16 13 8 3 2 4 4 4 3 4 6 8 11 13 14 16 16 17 18 21 23 26 28 30 32 32 33
30 27 24 18 11 7 7 10 14 17 16 13 9 5 2 1 2 4 5 6 7 8 8 10 11 12 14 16 18 20 23 25 27 28 30 31 31 31
25 21 17 10 5 5 8 13 16 15 12 11 10 10 9 8 8 7 6 6 6 7 9 10 12 14 16 18 19 21 22 24 26 27 28 30 31 31
19 15 9 3 4 7 11 15 14 12 13 15 16 16 15 13 10 6 3 3 6 8 10 12 13 15 16 17 19 21 23 24 26 27 28 29 30 31
Wind_Direction
301 300 299 298 297 296 295 294 293 291 288 287 284 281 277 274 271 268 265 261 259 258 259 259 260 261 262 263 263 261 257 252 250 250 250 251 251 250
300 299 298 297 296 295 294 293 291 290 289 288 285 281 277 273 269 266 263 261 259 257 257 257 258 257 257 257 258 258 255 251 249 248 248 248 248 248
299 298 296 295 294 293 292 291 289 289 289 289 287 284 280 277 272 268 264 261 258 256 254 254 255 255 254 254 254 255 254 251 249 248 248 248 248 247
298 297 295 294 293 292 292 291 290 289 289 289 287 285 282 280 277 272 269 265 260 256 253 252 253 253 253 253 253 253 252 250 249 248 247 248 247 247
298 296 294 293 292 292 291 290 289 288 287 288 288 286 283 281 278 275 272 268 263 258 254 252 251 252 252 253 253 252 250 249 248 248 247 246 246 245
298 295 293 292 291 290 289 288 287 286 285 285 285 285 283 281 278 275 271 268 264 260 256 253 251 251 251 251 252 252 251 249 247 246 245 244 243 242
298 296 293 292 291 290 288 287 286 285 284 284 284 283 282 280 277 273 270 266 263 260 257 253 251 251 250 250 250 251 250 249 248 247 244 242 241 241
299 296 294 292 290 289 287 286 285 284 284 283 283 283 282 280 277 272 268 264 260 258 257 253 251 250 250 251 250 250 250 249 249 248 246 244 239 239
301 299 297 295 292 290 287 286 284 284 283 283 283 283 282 279 276 271 266 261 256 252 252 251 251 250 249 249 249 249 249 250 249 250 247 245 238 237
305 304 303 300 297 294 291 288 285 283 282 282 282 283 282 279 275 270 264 258 253 249 249 248 247 248 247 248 248 249 249 250 250 249 246 243 238 236
311 311 309 307 303 299 296 293 290 286 284 283 282 281 280 277 273 268 261 255 250 245 246 246 245 245 245 245 246 247 247 246 246 245 244 241 239 237
316 315 313 311 309 307 304 301 298 293 289 285 282 279 278 275 271 267 261 255 250 244 242 244 243 244 244 243 244 244 242 240 240 241 241 240 239 239
319 318 316 315 315 314 311 308 305 303 299 292 283 275 272 270 267 265 262 260 254 247 243 242 241 242 242 240 238 237 235 233 234 237 237 238 237 238
321 320 319 318 318 317 314 311 309 308 306 299 285 271 263 261 260 260 260 260 260 255 247 242 237 235 233 230 227 227 228 229 231 233 233 233 233 235
320 320 320 320 318 316 313 311 311 310 307 298 279 259 254 253 255 256 258 259 261 261 252 240 231 224 222 220 220 222 225 227 229 231 231 230 230 231
318 318 319 320 319 317 314 313 313 313 310 300 273 259 252 251 253 254 255 257 259 256 247 234 222 218 217 217 219 221 224 226 226 226 224 223 223 224
318 319 321 321 318 315 313 313 315 317 321 322 308 283 268 260 257 255 253 251 248 246 247 243 235 226 222 219 218 219 221 221 219 216 216 218 222 228
319 320 321 322 320 317 315 314 318 327 334 331 321 309 289 268 256 249 241 239 245 252 253 243 229 220 216 214 213 211 211 211 211 213 217 223 232 239
320 321 323 323 322 320 321 327 336 339 337 332 326 320 304 264 235 227 230 237 244 237 205 183 181 182 185 186 188 193 197 204 213 221 229 237 244 249
320 322 324 325 325 326 335 347 347 343 338 336 336 336 324 217 207 213 207 193 168 156 158 162 166 172 178 186 195 205 214 223 231 238 243 248 252 256
323 323 324 328 331 342 356 354 348 345 347 354 4 18 49 125 159 161 157 153 157 166 175 184 194 204 213 221 229 234 238 243 248 252 254 256 257 256
325 324 326 334 352 10 3 355 351 358 15 35 51 67 76 85 100 117 134 154 181 204 218 227 234 240 244 248 251 254 256 257 258 259 260 260 260 258
327 326 334 6 38 19 3 359 8 35 59 68 74 74 75 77 84 96 131 200 233 247 254 259 262 265 267 268 269 268 268 267 266 265 264 263 262 259
Height
5573 5563 5552 5542 5531 5520 5510 5499 5490 5485 5492 5501 5498 5495 5489 5487 5486 5484 5483 5485 5486 5487 5488 5489 5491 5494 5496 5499 5501 5503 5505 5508 5511 5514 5516 5519 5521 5523
5548 5537 5526 5515 5506 5496 5487 5478 5468 5457 5454 5466 5468 5467 5462 5460 5459 5457 5456 5457 5459 5462 5464 5465 5468 5471 5474 5477 5480 5483 5486 5489 5492 5495 5498 5502 5504 5507
5521 5510 5500 5490 5481 5473 5465 5458 5450 5440 5432 5438 5441 5441 5438 5436 5435 5432 5431 5431 5434 5437 5439 5441 5445 5448 5452 5455 5459 5462 5465 5469 5473 5477 5481 5485 5488 5492
5496 5485 5475 5467 5459 5452 5445 5438 5432 5424 5415 5413 5419 5419 5417 5414 5411 5410 5410 5410 5411 5414 5415 5419 5422 5426 5430 5434 5438 5442 5445 5450 5454 5459 5463 5468 5472 5476
5471 5462 5453 5445 5438 5431 5424 5417 5411 5404 5396 5389 5391 5395 5395 5393 5388 5388 5388 5389 5390 5392 5394 5397 5401 5405 5409 5413 5417 5421 5426 5430 5435 5440 5445 5450 5455 5460
5450 5441 5432 5423 5415 5409 5402 5395 5387 5381 5375 5367 5365 5367 5369 5369 5364 5363 5365 5368 5370 5372 5373 5376 5380 5384 5389 5393 5398 5402 5406 5410 5415 5421 5427 5432 5439 5444
5430 5420 5410 5400 5390 5382 5374 5368 5360 5352 5347 5343 5340 5339 5340 5340 5338 5337 5339 5344 5349 5351 5352 5356 5359 5364 5369 5373 5378 5382 5386 5391 5396 5402 5408 5414 5421 5427
5404 5395 5385 5374 5363 5353 5344 5336 5329 5321 5316 5314 5311 5310 5311 5311 5310 5310 5312 5317 5326 5332 5329 5336 5339 5345 5351 5354 5358 5362 5367 5372 5378 5384 5390 5396 5404 5410
5374 5363 5353 5342 5329 5319 5312 5305 5299 5293 5287 5283 5283 5283 5282 5283 5282 5284 5286 5290 5299 5307 5309 5316 5322 5326 5332 5335 5340 5345 5350 5355 5361 5367 5373 5379 5387 5394
5348 5335 5322 5312 5300 5288 5280 5275 5271 5268 5263 5260 5259 5258 5257 5258 5259 5261 5264 5269 5277 5285 5289 5296 5304 5308 5313 5318 5322 5327 5333 5339 5345 5352 5358 5365 5371 5378
5329 5315 5301 5290 5280 5267 5257 5252 5249 5247 5245 5243 5241 5239 5238 5239 5240 5243 5246 5251 5259 5267 5272 5277 5285 5290 5296 5301 5306 5311 5317 5324 5331 5338 5344 5350 5356 5363
5314 5302 5288 5275 5264 5254 5244 5238 5234 5232 5231 5230 5228 5226 5224 5225 5227 5229 5232 5237 5243 5251 5258 5261 5268 5273 5279 5286 5290 5295 5302 5310 5317 5323 5330 5336 5342 5349
5298 5288 5277 5265 5255 5246 5236 5229 5223 5220 5219 5218 5217 5216 5215 5216 5218 5221 5223 5226 5231 5237 5244 5248 5253 5258 5264 5271 5277 5282 5289 5296 5304 5310 5316 5323 5329 5336
5284 5275 5265 5256 5247 5238 5230 5223 5217 5213 5210 5208 5208 5208 5209 5210 5212 5214 5216 5218 5222 5227 5232 5236 5241 5246 5252 5258 5265 5271 5278 5285 5292 5298 5304 5310 5316 5322
5275 5266 5256 5247 5239 5232 5224 5216 5211 5207 5204 5203 5203 5204 5205 5206 5208 5210 5211 5213 5216 5219 5223 5228 5232 5238 5243 5249 5255 5262 5268 5274 5281 5287 5293 5299 5305 5311
5266 5259 5250 5240 5231 5224 5217 5211 5206 5202 5200 5200 5201 5201 5202 5203 5204 5206 5207 5209 5211 5214 5218 5222 5226 5231 5237 5242 5248 5254 5259 5265 5272 5278 5283 5289 5295 5301
5256 5250 5243 5235 5227 5219 5213 5207 5203 5201 5199 5199 5199 5200 5200 5201 5202 5203 5204 5206 5208 5211 5214 5218 5222 5226 5231 5236 5241 5247 5252 5258 5264 5270 5276 5281 5287 5292
5247 5241 5235 5227 5220 5214 5209 5205 5202 5201 5200 5199 5198 5198 5198 5198 5199 5200 5202 5204 5206 5209 5211 5214 5217 5221 5226 5231 5236 5241 5246 5252 5258 5264 5270 5275 5279 5284
5240 5234 5228 5221 5216 5211 5207 5205 5203 5202 5201 5199 5197 5196 5196 5197 5198 5199 5201 5203 5205 5207 5209 5212 5216 5220 5224 5229 5234 5239 5244 5249 5254 5259 5263 5267 5270 5272
5233 5228 5222 5217 5213 5210 5208 5207 5205 5203 5201 5198 5196 5196 5196 5197 5198 5200 5202 5204 5206 5208 5211 5215 5218 5222 5226 5230 5234 5237 5241 5245 5248 5251 5253 5256 5258 5260
5228 5223 5219 5215 5213 5212 5210 5209 5206 5204 5201 5199 5197 5197 5197 5199 5200 5202 5204 5206 5209 5212 5215 5217 5220 5223 5225 5228 5230 5232 5234 5236 5239 5241 5242 5244 5246 5247
5224 5220 5217 5216 5215 5214 5213 5210 5208 5205 5203 5201 5200 5200 5201 5202 5203 5205 5208 5210 5212 5214 5216 5217 5219 5220 5221 5223 5224 5225 5226 5227 5229 5230 5231 5232 5233 5234
5222 5219 5218 5218 5217 5217 5215 5212 5210 5208 5207 5206 5206 5206 5206 5208 5209 5210 5211 5212 5213 5214 5214 5215 5215 5215 5215 5216 5216 5216 5216 5217 5218 5218 5219 5219 5220 5221